GLO1733 SBMQ-SBBE

Flight info

Callsign GLO1733
Flight time 0h 41m
Altitude 25000
Route TILTO UZ7 VUSNA
Aircraft B738/M-SDFGIKLORWXY/LB1

Departure

Time 2026-04-25 23:07
Airport Macapá - Alberto Alcolumbre International Airport (SBMQ)

Arrival

Time 2026-04-25 23:48
Airport Val de Cans/Júlio Cezar Ribeiro International Airport (SBBE)
Time Latitude Longitude Altitude Speed Heading
2026-04-25 22:30 0.05059 -51.06760 28 ft 0 kts 118°
2026-04-25 22:58 0.05067 -51.06773 31 ft 4 kts 129°
2026-04-25 22:59 0.05085 -51.06789 31 ft 4 kts 147°
2026-04-25 22:59 0.05105 -51.06796 31 ft 4 kts 214°
2026-04-25 22:59 0.05119 -51.06776 32 ft 4 kts 245°
2026-04-25 22:59 0.05127 -51.06760 31 ft 0 kts 237°
2026-04-25 23:01 0.05122 -51.06768 26 ft 4 kts 237°
2026-04-25 23:02 0.05099 -51.06815 28 ft 9 kts 268°
2026-04-25 23:02 0.05141 -51.06858 26 ft 9 kts 326°
2026-04-25 23:02 0.05193 -51.06892 27 ft 9 kts 327°
2026-04-25 23:02 0.05233 -51.06933 28 ft 9 kts 282°
2026-04-25 23:03 0.05209 -51.06988 29 ft 10 kts 237°
2026-04-25 23:03 0.05167 -51.07054 29 ft 13 kts 237°
2026-04-25 23:03 0.05109 -51.07143 29 ft 17 kts 237°
2026-04-25 23:03 0.05037 -51.07253 28 ft 19 kts 237°
2026-04-25 23:04 0.04966 -51.07364 28 ft 19 kts 237°
2026-04-25 23:04 0.04896 -51.07474 30 ft 18 kts 238°
2026-04-25 23:04 0.04828 -51.07579 27 ft 17 kts 237°
2026-04-25 23:04 0.04763 -51.07680 26 ft 17 kts 237°
2026-04-25 23:05 0.04701 -51.07775 25 ft 16 kts 237°
2026-04-25 23:05 0.04641 -51.07867 27 ft 16 kts 237°
2026-04-25 23:05 0.04581 -51.07947 27 ft 12 kts 214°
2026-04-25 23:05 0.04534 -51.07975 27 ft 7 kts 262°
2026-04-25 23:06 0.04570 -51.07975 27 ft 8 kts 48°
2026-04-25 23:06 0.04669 -51.07824 27 ft 59 kts 57°
2026-04-25 23:06 0.05020 -51.07280 28 ft 125 kts 57°
2026-04-25 23:06 0.05579 -51.06397 165 ft 165 kts 58°
2026-04-25 23:07 0.06209 -51.05426 840 ft 169 kts 58°
2026-04-25 23:07 0.06671 -51.04373 1327 ft 182 kts 88°
2026-04-25 23:07 0.06222 -51.03119 1590 ft 206 kts 123°
2026-04-25 23:07 0.05352 -51.01879 1799 ft 228 kts 124°
2026-04-25 23:08 0.04404 -51.00520 2025 ft 250 kts 123°
2026-04-25 23:08 0.03389 -50.99047 2606 ft 260 kts 123°
2026-04-25 23:08 0.02370 -50.97550 3393 ft 262 kts 123°
2026-04-25 23:08 0.01348 -50.96034 4148 ft 265 kts 123°
2026-04-25 23:09 0.00318 -50.94494 4874 ft 268 kts 122°
2026-04-25 23:09 -0.00711 -50.92943 5614 ft 271 kts 122°
2026-04-25 23:09 -0.01564 -50.91651 6214 ft 273 kts 122°
2026-04-25 23:09 -0.02623 -50.90042 6947 ft 276 kts 122°
2026-04-25 23:10 -0.03324 -50.88974 7417 ft 278 kts 122°
2026-04-25 23:10 -0.04388 -50.87348 8130 ft 281 kts 122°
2026-04-25 23:10 -0.05469 -50.85695 8884 ft 284 kts 122°
2026-04-25 23:10 -0.06546 -50.84047 9634 ft 288 kts 122°
2026-04-25 23:11 -0.07653 -50.82349 10274 ft 296 kts 122°
2026-04-25 23:11 -0.08822 -50.80554 10469 ft 320 kts 122°
2026-04-25 23:11 -0.10045 -50.78675 10906 ft 331 kts 122°
2026-04-25 23:11 -0.11300 -50.76749 11552 ft 336 kts 122°
2026-04-25 23:12 -0.12585 -50.74777 12275 ft 339 kts 122°
2026-04-25 23:12 -0.13856 -50.72825 12975 ft 343 kts 122°
2026-04-25 23:12 -0.15192 -50.70774 13691 ft 348 kts 122°
2026-04-25 23:12 -0.16501 -50.68764 14314 ft 351 kts 122°
2026-04-25 23:13 -0.17840 -50.66708 15010 ft 354 kts 122°
2026-04-25 23:13 -0.19189 -50.64635 15683 ft 357 kts 122°
2026-04-25 23:13 -0.20551 -50.62543 16356 ft 361 kts 122°
2026-04-25 23:13 -0.21900 -50.60471 17003 ft 364 kts 122°
2026-04-25 23:14 -0.23286 -50.58341 17660 ft 368 kts 122°
2026-04-25 23:14 -0.24689 -50.56185 18293 ft 372 kts 122°
2026-04-25 23:14 -0.26091 -50.54032 18832 ft 375 kts 121°
2026-04-25 23:14 -0.27434 -50.51968 19372 ft 377 kts 121°
2026-04-25 23:15 -0.28884 -50.49741 19956 ft 380 kts 121°
2026-04-25 23:15 -0.30329 -50.47520 20499 ft 383 kts 121°
2026-04-25 23:15 -0.31762 -50.45318 21056 ft 386 kts 121°
2026-04-25 23:15 -0.32704 -50.43871 21485 ft 383 kts 121°
2026-04-25 23:16 -0.34118 -50.41704 22596 ft 370 kts 121°
2026-04-25 23:16 -0.35441 -50.39676 23634 ft 357 kts 121°
2026-04-25 23:16 -0.36775 -50.37631 24502 ft 348 kts 121°
2026-04-25 23:16 -0.38092 -50.35607 24777 ft 346 kts 121°
2026-04-25 23:17 -0.39410 -50.33581 24917 ft 351 kts 121°
2026-04-25 23:17 -0.40747 -50.31521 24947 ft 366 kts 121°
2026-04-25 23:17 -0.42133 -50.29385 24957 ft 381 kts 121°
2026-04-25 23:17 -0.43546 -50.27211 24949 ft 394 kts 121°
2026-04-25 23:18 -0.45042 -50.24909 24956 ft 406 kts 121°
2026-04-25 23:18 -0.46578 -50.22548 24957 ft 417 kts 121°
2026-04-25 23:18 -0.48178 -50.20090 24956 ft 426 kts 121°
2026-04-25 23:18 -0.49690 -50.17768 24952 ft 434 kts 121°
2026-04-25 23:19 -0.51299 -50.15297 24946 ft 441 kts 121°
2026-04-25 23:19 -0.52973 -50.12727 24935 ft 441 kts 121°
2026-04-25 23:19 -0.54434 -50.10486 24921 ft 440 kts 121°
2026-04-25 23:19 -0.56007 -50.08071 24936 ft 439 kts 121°
2026-04-25 23:20 -0.57668 -50.05519 24929 ft 438 kts 121°
2026-04-25 23:20 -0.59340 -50.02951 24937 ft 438 kts 121°
2026-04-25 23:20 -0.61005 -50.00394 24936 ft 437 kts 121°
2026-04-25 23:20 -0.62350 -49.98327 24934 ft 437 kts 121°
2026-04-25 23:21 -0.63903 -49.95940 24941 ft 436 kts 121°
2026-04-25 23:21 -0.65515 -49.93463 24945 ft 436 kts 121°
2026-04-25 23:21 -0.66489 -49.91967 24945 ft 436 kts 121°
2026-04-25 23:21 -0.68117 -49.89464 24942 ft 436 kts 121°
2026-04-25 23:22 -0.69794 -49.86887 24942 ft 436 kts 121°
2026-04-25 23:22 -0.71446 -49.84348 24926 ft 433 kts 121°
2026-04-25 23:22 -0.72886 -49.82137 24918 ft 418 kts 121°
2026-04-25 23:23 -0.76010 -49.77340 24379 ft 403 kts 121°
2026-04-25 23:23 -0.77539 -49.74990 23936 ft 401 kts 121°
2026-04-25 23:23 -0.79043 -49.72678 23461 ft 399 kts 121°
2026-04-25 23:23 -0.80529 -49.70392 22927 ft 397 kts 121°
2026-04-25 23:24 -0.81933 -49.68233 22471 ft 395 kts 121°
2026-04-25 23:24 -0.82959 -49.66655 22135 ft 393 kts 121°
2026-04-25 23:24 -0.84181 -49.64778 21753 ft 390 kts 121°
2026-04-25 23:24 -0.85674 -49.62482 21259 ft 387 kts 121°
2026-04-25 23:25 -0.86771 -49.60796 20943 ft 385 kts 121°
2026-04-25 23:25 -0.88018 -49.58880 20544 ft 383 kts 121°
2026-04-25 23:25 -0.89491 -49.56615 20081 ft 381 kts 121°
2026-04-25 23:25 -0.90935 -49.54395 19598 ft 380 kts 121°
2026-04-25 23:26 -0.92372 -49.52187 19149 ft 378 kts 121°
2026-04-25 23:26 -0.93808 -49.49978 18688 ft 377 kts 121°
2026-04-25 23:26 -0.95219 -49.47808 18241 ft 376 kts 121°
2026-04-25 23:26 -0.96639 -49.45626 17739 ft 374 kts 121°
2026-04-25 23:27 -0.98038 -49.43476 17281 ft 372 kts 121°
2026-04-25 23:27 -0.99425 -49.41342 16841 ft 369 kts 121°
2026-04-25 23:27 -1.00838 -49.39171 16389 ft 367 kts 121°
2026-04-25 23:27 -1.02223 -49.37042 15955 ft 364 kts 122°
2026-04-25 23:28 -1.03598 -49.34928 15522 ft 362 kts 122°
2026-04-25 23:28 -1.04881 -49.32955 15120 ft 360 kts 122°
2026-04-25 23:28 -1.06229 -49.30881 14679 ft 359 kts 122°
2026-04-25 23:28 -1.07591 -49.28788 14228 ft 358 kts 122°
2026-04-25 23:29 -1.08948 -49.26702 13797 ft 357 kts 122°
2026-04-25 23:29 -1.10288 -49.24641 13317 ft 356 kts 122°
2026-04-25 23:29 -1.11610 -49.22609 12886 ft 354 kts 122°
2026-04-25 23:29 -1.12948 -49.20551 12450 ft 351 kts 122°
2026-04-25 23:30 -1.14267 -49.18523 12026 ft 349 kts 122°
2026-04-25 23:30 -1.15577 -49.16508 11604 ft 346 kts 122°
2026-04-25 23:30 -1.16883 -49.14501 11178 ft 344 kts 122°
2026-04-25 23:30 -1.18180 -49.12506 10769 ft 341 kts 122°
2026-04-25 23:31 -1.19467 -49.10526 10438 ft 336 kts 122°
2026-04-25 23:31 -1.20706 -49.08623 10260 ft 318 kts 122°
2026-04-25 23:31 -1.21881 -49.06817 10118 ft 300 kts 122°
2026-04-25 23:31 -1.22993 -49.05108 10000 ft 289 kts 122°
2026-04-25 23:32 -1.24074 -49.03445 9767 ft 285 kts 122°
2026-04-25 23:32 -1.25156 -49.01780 9456 ft 284 kts 122°
2026-04-25 23:32 -1.26230 -49.00128 9158 ft 282 kts 122°
2026-04-25 23:32 -1.27244 -48.98567 8868 ft 281 kts 122°
2026-04-25 23:33 -1.28311 -48.96926 8567 ft 280 kts 122°
2026-04-25 23:33 -1.29357 -48.95317 8273 ft 279 kts 122°
2026-04-25 23:33 -1.30414 -48.93691 7969 ft 278 kts 122°
2026-04-25 23:33 -1.31471 -48.92065 7675 ft 278 kts 122°
2026-04-25 23:34 -1.32523 -48.90446 7363 ft 277 kts 122°
2026-04-25 23:34 -1.33574 -48.88829 7063 ft 276 kts 122°
2026-04-25 23:34 -1.34617 -48.87225 6766 ft 276 kts 122°
2026-04-25 23:34 -1.35664 -48.85614 6470 ft 275 kts 122°
2026-04-25 23:35 -1.36703 -48.84015 6159 ft 275 kts 122°
2026-04-25 23:35 -1.37607 -48.82625 5893 ft 274 kts 122°
2026-04-25 23:35 -1.38648 -48.81023 5585 ft 274 kts 122°
2026-04-25 23:35 -1.39683 -48.79431 5283 ft 273 kts 122°
2026-04-25 23:36 -1.40700 -48.77867 4998 ft 272 kts 122°
2026-04-25 23:36 -1.41742 -48.76261 4701 ft 271 kts 122°
2026-04-25 23:36 -1.42773 -48.74675 4387 ft 270 kts 122°
2026-04-25 23:36 -1.43801 -48.73094 4090 ft 270 kts 123°
2026-04-25 23:37 -1.44804 -48.71552 3921 ft 264 kts 122°
2026-04-25 23:37 -1.45787 -48.70040 3806 ft 256 kts 122°
2026-04-25 23:37 -1.46687 -48.68530 3694 ft 249 kts 116°
2026-04-25 23:37 -1.47411 -48.66993 3586 ft 242 kts 114°
2026-04-25 23:38 -1.48105 -48.65492 3481 ft 234 kts 114°
2026-04-25 23:38 -1.48786 -48.64040 3390 ft 227 kts 115°
2026-04-25 23:38 -1.49454 -48.62632 3297 ft 219 kts 115°
2026-04-25 23:38 -1.50008 -48.61301 3146 ft 211 kts 101°
2026-04-25 23:39 -1.49826 -48.59881 2941 ft 204 kts 63°
2026-04-25 23:39 -1.49001 -48.58783 2761 ft 198 kts 46°
2026-04-25 23:39 -1.48028 -48.57844 2535 ft 194 kts 45°
2026-04-25 23:39 -1.47075 -48.56903 2281 ft 191 kts 46°
2026-04-25 23:40 -1.46145 -48.55964 2044 ft 187 kts 47°
2026-04-25 23:40 -1.45248 -48.55052 1805 ft 182 kts 47°
2026-04-25 23:40 -1.44374 -48.54163 1569 ft 177 kts 47°
2026-04-25 23:40 -1.43557 -48.53333 1352 ft 173 kts 47°
2026-04-25 23:41 -1.42701 -48.52464 1128 ft 170 kts 47°
2026-04-25 23:41 -1.41870 -48.51617 895 ft 171 kts 49°
2026-04-25 23:41 -1.41042 -48.50777 714 ft 166 kts 47°
2026-04-25 23:41 -1.40211 -48.49946 799 ft 179 kts 46°
2026-04-25 23:42 -1.39276 -48.49013 1493 ft 206 kts 47°
2026-04-25 23:42 -1.38212 -48.47997 1535 ft 213 kts 40°
2026-04-25 23:42 -1.36954 -48.47514 1650 ft 215 kts 360°
2026-04-25 23:42 -1.35576 -48.48083 2255 ft 223 kts 315°
2026-04-25 23:43 -1.34576 -48.49299 2748 ft 230 kts 300°
2026-04-25 23:43 -1.34239 -48.50809 3002 ft 226 kts 262°
2026-04-25 23:43 -1.34578 -48.52350 2991 ft 228 kts 255°
2026-04-25 23:43 -1.35002 -48.53865 2978 ft 223 kts 244°
2026-04-25 23:44 -1.35796 -48.55135 2933 ft 208 kts 234°
2026-04-25 23:44 -1.36649 -48.56234 2816 ft 192 kts 226°
2026-04-25 23:44 -1.37518 -48.57176 2697 ft 178 kts 225°
2026-04-25 23:44 -1.38480 -48.57831 2606 ft 161 kts 183°
2026-04-25 23:45 -1.39449 -48.57512 2638 ft 144 kts 141°
2026-04-25 23:45 -1.40283 -48.56957 2485 ft 142 kts 147°
2026-04-25 23:45 -1.41122 -48.56462 2359 ft 136 kts 147°
2026-04-25 23:45 -1.41943 -48.56000 1983 ft 136 kts 148°
2026-04-25 23:46 -1.42784 -48.55541 1774 ft 141 kts 148°
2026-04-25 23:46 -1.43588 -48.54963 1735 ft 143 kts 124°
2026-04-25 23:46 -1.43663 -48.54027 1644 ft 143 kts 69°
2026-04-25 23:46 -1.43166 -48.53155 1398 ft 146 kts 56°
2026-04-25 23:47 -1.42554 -48.52374 1193 ft 140 kts 54°
2026-04-25 23:47 -1.41904 -48.51656 998 ft 141 kts 49°
2026-04-25 23:47 -1.41215 -48.50953 803 ft 141 kts 47°
2026-04-25 23:47 -1.40531 -48.50258 577 ft 139 kts 47°
2026-04-25 23:48 -1.39862 -48.49559 377 ft 138 kts 45°
2026-04-25 23:48 -1.39188 -48.48887 187 ft 137 kts 44°
2026-04-25 23:48 -1.38521 -48.48216 47 ft 131 kts 45°
2026-04-25 23:48 -1.38067 -48.47760 41 ft 43 kts 45°
2026-04-25 23:49 -1.37963 -48.47651 39 ft 10 kts 62°
2026-04-25 23:49 -1.38006 -48.47625 39 ft 10 kts 184°
2026-04-25 23:49 -1.38095 -48.47632 41 ft 16 kts 185°
2026-04-25 23:49 -1.38226 -48.47643 42 ft 21 kts 185°
2026-04-25 23:50 -1.38378 -48.47656 40 ft 22 kts 185°
2026-04-25 23:50 -1.38529 -48.47668 43 ft 21 kts 185°
2026-04-25 23:50 -1.38657 -48.47680 44 ft 6 kts 197°
2026-04-25 23:50 -1.38669 -48.47723 43 ft 9 kts 270°
2026-04-25 23:51 -1.38690 -48.47791 42 ft 10 kts 207°
2026-04-25 23:51 -1.38763 -48.47800 42 ft 11 kts 185°
2026-04-25 23:51 -1.38853 -48.47809 40 ft 14 kts 185°
2026-04-25 23:51 -1.38945 -48.47818 42 ft 8 kts 188°
2026-04-25 23:52 -1.38962 -48.47859 42 ft 7 kts 276°
2026-04-25 23:52 -1.38959 -48.47887 42 ft 0 kts 275°